星链-11672 (STARLINK-11672)

导读 | 星芒AI

STARLINK-11672 是 SpaceX Starlink 项目中的一颗低轨通信卫星,属于第 5 批 Starlink 卫星任务(5-5)。该卫星于 2020 年 11 月 25 日由猎鹰 9 号火箭从卡纳维拉尔角发射升空。它运行在约 550 公里的轨道高度,旨在为全球用户提供高速互联网服务。该卫星采用先进的相控阵天线和激光通信技术,以提高网络效率和覆盖范围。作为 Starlink 卫星群的一部分,它支持 SpaceX 构建全球宽带网络的目标。

基本信息
目录编号:
63665
目录名称:
STARLINK-11672
国际标识:
2025-085B
轨道中心:
EARTH
卫星名称:
星链-11672
卫星全名:
星链-11672 (STARLINK-11672)
卫星状态:
在轨 (已飞行189 天)
发射日期:
2025-04-28 UTC
国别 :
美国 (US)
星等 :
--
轨道信息
数据来源 国际轨道数据
星历时间: 2025-11-02T18:34:46+0800
16小时前
查看轨道信息
半长轴: 6734.374km
偏心率: 0.0000919
轨道倾角: 42.998°
近地点辐角 347.952°
升交点赤经 325.008°
平近点角 12.133°
近地点: 355.62km
远地点: 356.858km
周期: 91.665分钟
每日圈数: 15.709305
详细信息
固有亮度:
5
最大亮度:
2.5
卫星平台:
Starlink V1.0
覆盖范围:
全球
运营商:
太空探索技术公司
运营商所在国:
美国
制造商(研发单位):
太空探索技术公司
制造商所在国:
美国
使用方式:
暂无
卫星简介
Starlink 计划是 SpaceX 推出的全球卫星互联网项目,通过发射低轨道卫星,为全球尤其是偏远地区提供高速、低延迟的互联网服务。自 2019 年起,Starlink 已部署数千颗卫星,旨在缩小全球数字鸿沟,推动互联网普及。该项目还为军事、航空等行业提供通信支持,带来广泛经济效益。
2D轨道图
3D轨道图
轨道高度分析图
轨道倾角分析图
轨道综合分析图
查看轨道综合分析图